User: anonymous   Login
Location: Caltech
(34.1382°N, 118.1253°W)
Time: 16:11:04
(UTC-08:00)
Language:

Cosmos 1025 Rocket - Orbit

View from above orbital plane
View from above orbital plane
View from above satellite
View from above satellite

Ground track
Ground track

The orbit data is extracted from the following two-line orbital elements,

1 10974U 78067B   16345.17005328  .00000137  00000-0  12525-4 0  9994
2 10974  82.4812 348.2086 0015978 247.8992 112.0529 14.87202253 79460
Epoch (UTC): 10 December 2016 04:04:52
Eccentricity: 0.0015978
inclination: 82.4812°
perigee height: 595 km
apogee height: 618 km
right ascension of ascending node: 348.2086°
argument of perigee: 247.8992°
revolutions per day: 14.87202253
mean anomaly at epoch: 112.0529°
orbit number at epoch: 7946

The dashed part of the orbit path shows where the satellite is in the earth's shadow,  

DLR